Siemreap, Cambodia

4:40 PM +07 on March 24, 2017 (GMT +0700)
Siem Reap

Weather History for VDSR - April, 2013

Change the Weather History Date:

Wednesday, April 17, 2013

  Actual Average Record
Temperature  
Mean Temperature 80 °F -  
Max Temperature 82 °F - - ()
Min Temperature 77 °F - - ()
Cooling Degree Days 14    
Growing Degree Days 30 (Base 50)    
Moisture  
Dew Point 76 °F    
Average Humidity 86    
Maximum Humidity 94    
Minimum Humidity 79    
Precipitation  
Precipitation 0.00 in - - ()
Sea Level Pressure  
Sea Level Pressure 29.71 in    
Wind  
Wind Speed 4 mph ()    
Max Wind Speed 10 mph    
Max Gust Speed -    
Visibility 6.0 miles    
Events Rain    
T = Trace of Precipitation, MM = Missing Value Source: Averaged Metar Reports

Daily Weather History Graph

Daily Weather History Graph

Search for Another Location

Airport or City:

Trip Planner

Search our weather history database for the weather conditions in past years. The results will help you decide how hot, cold, wet, or windy it might be!

Date:

Astronomy

Apr. 17, 2013 Rise Set
Actual Time 5:50 AM +07 6:17 PM +07
Civil Twilight 5:29 AM +07 6:39 PM +07
Nautical Twilight 5:03 AM +07 7:04 PM +07
Astronomical Twilight 4:38 AM +07 7:30 PM +07
Moon 10:56 AM +07 (4/17) 11:55 PM +07 (4/17)
Length of Visible Light 13h 10m
Length of Day
12h 27m
Waxing Crescent, 38% of the Moon is Illuminated
Apr 17
Waxing Crescent
Apr 18
First Quarter
Apr 26
Full
May 2
Last Quarter
May 10
New

Hourly Weather History & Observations

Time (+07) Temp. Heat Index Dew Point Humidity Pressure Visibility Wind Dir Wind Speed Gust Speed Precip Events Conditions
12:00 AM 78.8 °F - 75.2 °F 89% 29.71 in 5.6 mi Calm Calm - N/A   Unknown
12:30 AM 78.8 °F - 75.2 °F 89% 29.71 in 5.6 mi Calm Calm - N/A   Unknown
1:00 AM 78.8 °F - 75.2 °F 89% 29.68 in 5.6 mi Calm Calm - N/A   Unknown
7:00 AM 78.8 °F - 77.0 °F 94% 29.71 in 5.6 mi ENE 3.5 mph - N/A   Mostly Cloudy
7:30 AM 80.6 °F 87.1 °F 77.0 °F 89% 29.74 in 6.2 mi SE 3.5 mph - N/A   Mostly Cloudy
8:00 AM 80.6 °F 86.2 °F 75.2 °F 84% 29.74 in 6.2 mi SSE 3.5 mph - N/A   Mostly Cloudy
8:30 AM 82.4 °F 89.5 °F 75.2 °F 79% 29.74 in 6.2 mi South 3.5 mph - N/A   Mostly Cloudy
9:00 AM 82.4 °F 89.5 °F 75.2 °F 79% 29.77 in 6.2 mi SE 3.5 mph - N/A   Mostly Cloudy
10:00 AM 82.4 °F 89.5 °F 75.2 °F 79% 29.77 in 6.2 mi SE 3.5 mph - N/A   Mostly Cloudy
10:30 AM 82.4 °F 89.5 °F 75.2 °F 79% 29.77 in 6.2 mi SSE 5.8 mph - N/A   Mostly Cloudy
11:00 AM 82.4 °F 90.9 °F 77.0 °F 84% 29.77 in 6.2 mi SW 5.8 mph - N/A   Mostly Cloudy
11:30 AM 82.4 °F 90.9 °F 77.0 °F 84% 29.77 in 6.2 mi SW 8.1 mph - N/A   Mostly Cloudy
12:00 PM 82.4 °F 90.9 °F 77.0 °F 84% 29.74 in 6.2 mi West 10.4 mph - N/A   Mostly Cloudy
12:30 PM 82.4 °F 90.9 °F 77.0 °F 84% 29.71 in 6.2 mi WNW 10.4 mph - N/A   Mostly Cloudy
1:00 PM 82.4 °F 89.5 °F 75.2 °F 79% 29.71 in 6.2 mi WNW 4.6 mph - N/A   Mostly Cloudy
1:30 PM - - 75.2 °F N/A% 29.71 in 6.2 mi West 10.4 mph - N/A   Mostly Cloudy
2:00 PM 77.0 °F - 73.4 °F 89% 29.71 in 6.2 mi SSE 10.4 mph - N/A Rain Light Rain
2:30 PM 78.8 °F - 73.4 °F 83% 29.68 in 6.2 mi North 4.6 mph - N/A   Mostly Cloudy
3:00 PM 80.6 °F 86.2 °F 75.2 °F 84% 29.65 in 6.2 mi NNE 4.6 mph - N/A   Mostly Cloudy
3:30 PM 80.6 °F 86.2 °F 75.2 °F 84% 29.65 in 6.2 mi North 6.9 mph - N/A   Scattered Clouds
4:00 PM 80.6 °F 86.2 °F 75.2 °F 84% 29.68 in 6.2 mi ENE 5.8 mph - N/A   Scattered Clouds
4:30 PM 80.6 °F 86.2 °F 75.2 °F 84% 29.65 in 6.2 mi East 3.5 mph - N/A   Scattered Clouds
5:00 PM 80.6 °F 86.2 °F 75.2 °F 84% 29.65 in 6.2 mi WNW 5.8 mph - N/A   Scattered Clouds
6:00 PM 80.6 °F 86.2 °F 75.2 °F 84% 29.65 in 6.2 mi NW 3.5 mph - N/A   Scattered Clouds
6:30 PM 80.6 °F 86.2 °F 75.2 °F 84% 29.65 in 6.2 mi NNE 5.8 mph - N/A   Scattered Clouds
7:00 PM 78.8 °F - 75.2 °F 89% 29.65 in 5.6 mi NNE 5.8 mph - N/A   Scattered Clouds
7:30 PM 78.8 °F - 75.2 °F 89% 29.68 in 5.6 mi NE 2.3 mph - N/A   Scattered Clouds
8:00 PM 78.8 °F - 75.2 °F 89% 29.68 in 5.6 mi WSW 2.3 mph - N/A   Scattered Clouds
8:30 PM 78.8 °F - 77.0 °F 94% 29.71 in 5.6 mi West 5.8 mph - N/A   Scattered Clouds
9:00 PM 78.8 °F - 77.0 °F 94% 29.74 in 5.6 mi West 9.2 mph - N/A   Scattered Clouds
9:30 PM 78.8 °F - 75.2 °F 89% 29.71 in 5.6 mi WNW 6.9 mph - N/A   Scattered Clouds
10:00 PM 78.8 °F - 75.2 °F 89% 29.71 in 5.6 mi NW 6.9 mph - N/A   Scattered Clouds
10:30 PM 78.8 °F - 75.2 °F 89% 29.74 in 5.6 mi NNW 4.6 mph - N/A   Scattered Clouds
11:00 PM 78.8 °F - 75.2 °F 89% 29.74 in 5.0 mi NNE 4.6 mph - N/A   Scattered Clouds